User: anonymous   Login
Location: Asheville, NC
(35.6000°N, 82.5500°W)
Time: 21:22:43
(UTC-05:00)
Language:

DOVE 4 - Orbit

View from above orbital plane
View from above orbital plane
View from above satellite
View from above satellite

Ground track
Ground track

The orbit data is extracted from the following two-line orbital elements,

1 39430U 13066Q   19049.82935160  .00000151  00000-0  36897-4 0  9996
2 39430  97.7301  14.3885 0149891 272.4298  85.9761 14.59198830279128
Epoch (UTC): 18 February 2019 19:54:15
Eccentricity: 0.0149891
inclination: 97.7301°
perigee height: 590 km
apogee height: 802 km
right ascension of ascending node: 14.3885°
argument of perigee: 272.4298°
revolutions per day: 14.59198830
mean anomaly at epoch: 85.9761°
orbit number at epoch: 27912

The dashed part of the orbit path shows where the satellite is in the earth's shadow,  

DLR